[[{"header":{"parameterUnit":"m.s-1","parameterCategory":1,"la1":30.2991,"la2":30.254,"lo1":-89.0895,"lo2":-89.0444,"dy":0.0017,"dx":0.0017,"nx":28,"ny":28,"refTime":"2023-07-25T09:00:00:Z","depth":0,"parameterNumber":2,"parameterNumberName":"U-component_of_WINDS"},"data":[0,0,0,0,0,0,0,0,0,0,0,0,0,0,0,0,0,0,0,0,0,0,0,0,0,0,0,0,0,0,0,0,0,0,0,0,0,0,0,0,0,0,0,0,0,0,0,0,0,0,0,0,0,0,0,0,0,0,-0.5465,-0.5466,0,-0.5473,-0.5473,-0.5473,-0.5464,-0.5463,-0.5463,-0.5463,-0.547,-0.547,-0.5471,0,0,0,0,0,0,0,0,0,0,0,0,0,-0.5442,-0.5443,-0.5465,-0.5466,-0.5466,-0.5473,-0.5473,-0.5473,-0.5464,-0.5463,-0.5463,-0.5463,-0.547,-0.547,-0.5471,0,0,0,0,0,0,0,0,0,0,0,0,0,-0.5451,-0.5443,-0.5465,-0.5462,-0.5462,-0.5473,-0.5473,-0.5473,-0.5464,-0.5463,-0.5463,-0.5462,-0.5469,-0.547,-0.5471,-0.5486,0,0,-0.5473,-0.5473,0,0,0,0,0,0,0,0,-0.5451,-0.5452,-0.5462,-0.5462,-0.5462,-0.5467,-0.5467,-0.5477,-0.5464,-0.5463,-0.5463,-0.5462,-0.5469,-0.547,-0.5472,-0.5486,-0.5486,-0.5473,-0.5474,-0.5474,-0.5474,0,0,0,0,0,0,0,-0.545,-0.5452,-0.5468,-0.5462,-0.5462,-0.546,-0.546,-0.5469,-0.5469,-0.5463,-0.5462,-0.5463,-0.5469,-0.5472,-0.5472,-0.5486,-0.5473,-0.5474,-0.5474,-0.5475,-0.5512,-0.5512,0,0,0,0,0,0,-0.545,-0.5451,-0.5468,-0.5469,-0.5455,-0.546,-0.5461,-0.5466,-0.5469,-0.5469,-0.5464,-0.5463,-0.5471,-0.5472,-0.5473,-0.549,-0.5474,-0.5475,-0.5475,-0.5511,-0.5512,-0.5513,0,0,0,0,0,0,-0.545,-0.5452,-0.5468,-0.546,-0.5462,-0.5461,-0.5467,-0.5466,-0.5469,-0.5469,-0.5469,-0.5467,-0.547,-0.5472,-0.5482,-0.549,-0.5475,-0.5476,-0.5511,-0.5512,-0.5512,-0.5525,0,0,0,0,0,0,-0.5449,-0.5452,-0.5458,-0.546,-0.5462,-0.5478,-0.5467,-0.5467,-0.547,-0.5469,-0.5472,-0.5472,-0.547,-0.5481,-0.5483,-0.5491,-0.5476,-0.551,-0.5511,-0.5512,-0.5524,-0.5526,-0.5528,0,0,0,0,0,-0.5448,-0.5461,-0.5458,-0.546,-0.547,-0.5478,-0.5479,-0.5477,-0.5471,-0.5477,-0.5477,-0.5472,-0.5489,-0.5483,-0.5484,-0.5493,-0.551,-0.5511,-0.5512,-0.5523,-0.5526,-0.5528,0,0,0,0,0,0,-0.5459,-0.5461,-0.5458,-0.5472,-0.5475,-0.5477,-0.5484,-0.548,-0.5485,-0.5484,-0.548,-0.5481,-0.5492,-0.5493,-0.5486,-0.5507,-0.5498,-0.55,-0.5506,-0.5508,-0.551,-0.551,-0.5477,0,0,0,0,0,-0.5463,-0.547,-0.5471,-0.5483,-0.5485,-0.5484,-0.5488,-0.5486,-0.5489,-0.549,-0.5491,-0.5494,-0.55,-0.5504,-0.551,-0.5524,-0.5524,-0.553,-0.5532,-0.5534,-0.5535,-0.5543,-0.5545,-0.5517,-0.5517,-0.5517,0,0,-0.5471,-0.5473,-0.5478,-0.5486,-0.5488,-0.5495,-0.5486,-0.5494,-0.5499,-0.5491,-0.5502,-0.5502,-0.5506,-0.5518,-0.5523,-0.5519,-0.5543,-0.5535,-0.5537,-0.5537,-0.5544,-0.5547,-0.5549,-0.5517,-0.5517,-0.5517,0,0,-0.549,-0.5493,-0.5503,-0.5505,-0.5509,-0.5508,-0.551,-0.5513,-0.5513,-0.5523,-0.5517,-0.5523,-0.5534,-0.5536,-0.5539,-0.5558,-0.5554,-0.556,-0.5571,-0.5578,-0.558,-0.5582,-0.5589,-0.5591,-0.5561,-0.5561,-0.5561,0,-0.55,-0.5511,-0.5508,-0.5517,-0.552,-0.5514,-0.5524,-0.5526,-0.5531,-0.5533,-0.5528,-0.5541,-0.5543,-0.5556,-0.556,-0.5562,-0.5565,-0.556,-0.558,-0.5582,-0.5584,-0.559,-0.5593,-0.5562,-0.5562,-0.5562,-0.5562,0,-0.5523,-0.5531,-0.5539,-0.5544,-0.5548,-0.5557,-0.5555,-0.5559,-0.5557,-0.5556,-0.5566,-0.5568,-0.5574,-0.5577,-0.5574,-0.5589,-0.5586,-0.5581,-0.5572,-0.5587,-0.5593,-0.5596,-0.5563,-0.5563,-0.5563,-0.5562,0,0,-0.555,-0.5553,-0.5556,-0.5558,-0.5561,-0.5567,-0.5575,-0.5581,-0.5585,-0.5588,-0.5595,-0.5604,-0.5599,-0.5602,-0.5599,-0.5605,-0.562,-0.5599,-0.5599,-0.5603,-0.5636,-0.5641,-0.5643,-0.5617,-0.5617,-0.5618,-0.5636,0,-0.5569,-0.5584,-0.5582,-0.5596,-0.5603,-0.5596,-0.5604,-0.5606,-0.5606,-0.5611,-0.5611,-0.5617,-0.561,-0.5612,-0.5617,-0.5617,-0.5627,-0.5616,-0.5623,-0.5624,-0.5623,-0.5647,-0.5651,-0.5668,-0.5638,-0.5639,-0.5639,0,-0.5593,-0.5598,-0.5613,-0.5615,-0.5618,-0.5624,-0.5629,-0.5634,-0.5637,-0.5636,-0.5639,-0.5635,-0.5643,-0.5634,-0.5645,-0.5638,-0.5641,-0.5641,-0.5642,-0.5642,-0.5633,-0.5648,-0.5674,-0.5676,-0.5643,-0.5642,-0.5642,0,-0.5611,-0.5621,-0.5632,-0.5633,-0.5636,-0.564,-0.5641,-0.5643,-0.5647,-0.5651,-0.5653,-0.5657,-0.566,-0.5664,-0.5661,-0.5655,-0.5673,-0.5663,-0.5672,-0.5672,-0.5677,-0.5676,-0.5703,-0.5678,-0.5678,-0.5678,-0.5678,0,-0.5633,-0.5643,-0.564,-0.5646,-0.5656,-0.5653,-0.5663,-0.5663,-0.5665,-0.5671,-0.5666,-0.5671,-0.5668,-0.5673,-0.5671,-0.568,-0.5681,-0.5681,-0.568,-0.5682,-0.5682,-0.5684,-0.5683,-0.5679,-0.5679,-0.5678,-0.5678,0,-0.5655,-0.5654,-0.5664,-0.5665,-0.5666,-0.5673,-0.5674,-0.568,-0.5679,-0.5686,-0.5688,-0.5686,-0.5692,-0.569,-0.5696,-0.5695,-0.5707,-0.5705,-0.5706,-0.5706,-0.5715,-0.5714,-0.5744,-0.5748,-0.572,-0.572,-0.572,0,-0.5669,-0.5677,-0.5678,-0.5682,-0.5683,-0.5689,-0.5693,-0.5689,-0.5693,-0.5696,-0.5701,-0.5707,-0.5711,-0.5721,-0.572,-0.5725,-0.5723,-0.5733,-0.5723,-0.5724,-0.5723,-0.5723,-0.5723,-0.5735,-0.5735,-0.5735,-0.5736,0,-0.5695,-0.5693,-0.5698,-0.5703,-0.5707,-0.5711,-0.5714,-0.5717,-0.5713,-0.5718,-0.5724,-0.5727,-0.5733,-0.5739,-0.5743,-0.5744,-0.5739,-0.5738,-0.5741,-0.5742,-0.5743,-0.5743,-0.5712,-0.5738,-0.5738,-0.5737,-0.5737,-0.5737,-0.5713,-0.5719,-0.5721,-0.5727,-0.5729,-0.5731,-0.5737,-0.5736,-0.5741,-0.5746,-0.5744,-0.5751,-0.5752,-0.5757,-0.5759,-0.5764,-0.576,-0.5763,-0.5764,-0.5765,-0.5766,-0.5742,-0.5765,-0.5765,-0.5765,-0.5765,-0.5764,0,-0.5738,-0.5739,-0.5744,-0.5749,-0.5753,-0.5748,-0.5751,-0.5755,-0.5761,-0.5763,-0.5767,-0.5774,-0.5779,-0.5778,-0.5783,-0.5787,-0.5785,-0.5789,-0.5788,-0.5789,-0.577,-0.5767,-0.579,-0.579,-0.579,-0.579,-0.579,-0.579,-0.5752,-0.5762,-0.576,-0.5771,-0.5771,-0.5778,-0.578,-0.5783,-0.5784,-0.5792,-0.5796,-0.5796,-0.5797,-0.5801,-0.5806,-0.5805,-0.5807,-0.5811,-0.581,-0.5793,-0.579,-0.5788,-0.5785,-0.5812,-0.5812,-0.5829,-0.5829,-0.5829]},{"header":{"parameterUnit":"m.s-1","parameterCategory":1,"la1":30.2991,"la2":30.254,"lo1":-89.0895,"lo2":-89.0444,"dy":0.0017,"dx":0.0017,"nx":28,"ny":28,"refTime":"2023-07-25T09:00:00:Z","depth":0,"parameterNumber":3,"parameterNumberName":"V-component_of_WINDS"},"data":[0,0,0,0,0,0,0,0,0,0,0,0,0,0,0,0,0,0,0,0,0,0,0,0,0,0,0,0,0,0,0,0,0,0,0,0,0,0,0,0,0,0,0,0,0,0,0,0,0,0,0,0,0,0,0,0,0,0,-1.2763,-1.2763,0,-1.2784,-1.2784,-1.2785,-1.2759,-1.2758,-1.2757,-1.2756,-1.2777,-1.2779,-1.278,0,0,0,0,0,0,0,0,0,0,0,0,0,-1.2701,-1.2702,-1.2763,-1.2763,-1.2764,-1.2784,-1.2784,-1.2785,-1.2759,-1.2758,-1.2756,-1.2755,-1.2777,-1.2779,-1.278,0,0,0,0,0,0,0,0,0,0,0,0,0,-1.2725,-1.2702,-1.2763,-1.2753,-1.2752,-1.2784,-1.2784,-1.2785,-1.2759,-1.2758,-1.2756,-1.2755,-1.2776,-1.2778,-1.2781,-1.2823,0,0,-1.2787,-1.2788,0,0,0,0,0,0,0,0,-1.2724,-1.2728,-1.2754,-1.2754,-1.2753,-1.2767,-1.277,-1.2798,-1.2759,-1.2757,-1.2756,-1.2754,-1.2775,-1.2777,-1.2785,-1.2824,-1.2825,-1.2788,-1.2789,-1.279,-1.279,0,0,0,0,0,0,0,-1.2722,-1.2727,-1.2771,-1.2755,-1.2754,-1.2748,-1.275,-1.2775,-1.2774,-1.2757,-1.2755,-1.2758,-1.2775,-1.2782,-1.2785,-1.2825,-1.2788,-1.2789,-1.2791,-1.2792,-1.2902,-1.2903,0,0,0,0,0,0,-1.2722,-1.2725,-1.2771,-1.2772,-1.2735,-1.275,-1.2752,-1.2764,-1.2773,-1.2773,-1.2759,-1.2756,-1.2779,-1.2782,-1.2786,-1.2837,-1.279,-1.2792,-1.2793,-1.29,-1.2902,-1.2904,0,0,0,0,0,0,-1.2721,-1.2726,-1.277,-1.2748,-1.2753,-1.2753,-1.2766,-1.2765,-1.2773,-1.2775,-1.2775,-1.2767,-1.2778,-1.2782,-1.2814,-1.2837,-1.2793,-1.2795,-1.2898,-1.2901,-1.2903,-1.294,0,0,0,0,0,0,-1.2719,-1.2726,-1.2742,-1.2749,-1.2755,-1.2798,-1.2768,-1.2767,-1.2777,-1.2774,-1.2783,-1.2783,-1.2778,-1.2811,-1.2816,-1.284,-1.2797,-1.2896,-1.29,-1.2902,-1.2936,-1.2943,-1.2949,0,0,0,0,0,-1.2717,-1.2751,-1.2743,-1.2748,-1.2775,-1.28,-1.2803,-1.2796,-1.2779,-1.2795,-1.2797,-1.2783,-1.2834,-1.2815,-1.282,-1.2845,-1.2895,-1.2899,-1.2902,-1.2934,-1.2942,-1.2948,0,0,0,0,0,0,-1.2746,-1.2752,-1.2743,-1.278,-1.279,-1.2795,-1.2816,-1.2805,-1.2819,-1.2816,-1.2807,-1.2809,-1.2843,-1.2847,-1.2825,-1.2887,-1.2861,-1.2866,-1.2883,-1.2891,-1.2897,-1.2896,-1.2798,0,0,0,0,0,-1.2757,-1.2777,-1.278,-1.2813,-1.2818,-1.2816,-1.2827,-1.2821,-1.2831,-1.2834,-1.2838,-1.2848,-1.2866,-1.2879,-1.2895,-1.2936,-1.2938,-1.2956,-1.2962,-1.2967,-1.2972,-1.2995,-1.3003,-1.2916,-1.2916,-1.2916,0,0,-1.278,-1.2785,-1.2798,-1.2819,-1.2826,-1.2847,-1.282,-1.2843,-1.2859,-1.2838,-1.2869,-1.2872,-1.2882,-1.2919,-1.2935,-1.2923,-1.2996,-1.2971,-1.2975,-1.2978,-1.3,-1.3008,-1.3015,-1.2918,-1.2918,-1.2918,0,0,-1.2833,-1.2838,-1.2867,-1.2874,-1.2885,-1.2883,-1.289,-1.2897,-1.2899,-1.2929,-1.2914,-1.2933,-1.2964,-1.2973,-1.2981,-1.3038,-1.3026,-1.3043,-1.3076,-1.3099,-1.3106,-1.3112,-1.3133,-1.3141,-1.3048,-1.3048,-1.3048,0,-1.2859,-1.2891,-1.2882,-1.2907,-1.2918,-1.2899,-1.2929,-1.2936,-1.2952,-1.296,-1.2945,-1.2985,-1.2991,-1.303,-1.3044,-1.3051,-1.3059,-1.3043,-1.3105,-1.3111,-1.3117,-1.3138,-1.3146,-1.305,-1.305,-1.305,-1.3049,0,-1.2924,-1.2946,-1.2968,-1.2984,-1.2997,-1.3023,-1.302,-1.3033,-1.3026,-1.3026,-1.3058,-1.3064,-1.3083,-1.3091,-1.3084,-1.313,-1.3122,-1.3107,-1.3082,-1.3128,-1.3147,-1.3155,-1.3053,-1.3053,-1.3052,-1.3051,0,0,-1.2997,-1.3008,-1.3017,-1.3024,-1.3035,-1.3052,-1.3078,-1.3096,-1.3109,-1.312,-1.3143,-1.317,-1.3156,-1.3166,-1.316,-1.3179,-1.3226,-1.3162,-1.3162,-1.3175,-1.3278,-1.3291,-1.33,-1.3217,-1.3219,-1.322,-1.3278,0,-1.3051,-1.3097,-1.309,-1.3134,-1.3155,-1.3139,-1.3162,-1.3171,-1.3172,-1.319,-1.319,-1.3211,-1.319,-1.3196,-1.3214,-1.3216,-1.3247,-1.3212,-1.3239,-1.324,-1.3239,-1.331,-1.3324,-1.3378,-1.3285,-1.3286,-1.3287,0,-1.312,-1.3135,-1.3181,-1.319,-1.3198,-1.3219,-1.3236,-1.3253,-1.3263,-1.3263,-1.3274,-1.3264,-1.3291,-1.3264,-1.3302,-1.3278,-1.3289,-1.3292,-1.3293,-1.3297,-1.3268,-1.3317,-1.3395,-1.3404,-1.3299,-1.3298,-1.3297,0,-1.317,-1.3201,-1.3234,-1.324,-1.3251,-1.3266,-1.3271,-1.328,-1.3292,-1.3306,-1.3314,-1.3331,-1.3341,-1.3355,-1.3351,-1.3331,-1.339,-1.3362,-1.3391,-1.3391,-1.3405,-1.3404,-1.3487,-1.3409,-1.3409,-1.3409,-1.3409,0,-1.3232,-1.3262,-1.3257,-1.3277,-1.331,-1.3302,-1.3335,-1.3337,-1.3346,-1.3366,-1.3352,-1.3372,-1.3364,-1.3384,-1.338,-1.3413,-1.3416,-1.3417,-1.3416,-1.342,-1.342,-1.3428,-1.3424,-1.3411,-1.341,-1.341,-1.341,0,-1.3294,-1.3292,-1.3326,-1.3334,-1.3336,-1.336,-1.3366,-1.3386,-1.3385,-1.3412,-1.3417,-1.3417,-1.3439,-1.3435,-1.346,-1.3457,-1.3498,-1.3492,-1.3495,-1.3494,-1.3524,-1.3522,-1.3616,-1.3629,-1.3541,-1.3542,-1.3542,0,-1.3335,-1.3357,-1.3367,-1.338,-1.3387,-1.3407,-1.342,-1.3413,-1.3426,-1.344,-1.3458,-1.3479,-1.3495,-1.3531,-1.3533,-1.3552,-1.3547,-1.3579,-1.355,-1.3553,-1.355,-1.3549,-1.3552,-1.3585,-1.3586,-1.3587,-1.3588,0,-1.3407,-1.3405,-1.3424,-1.3442,-1.3457,-1.3471,-1.3483,-1.3495,-1.3489,-1.3505,-1.3527,-1.354,-1.3566,-1.3587,-1.3605,-1.361,-1.3599,-1.3596,-1.3604,-1.3609,-1.3611,-1.3612,-1.3513,-1.3595,-1.3594,-1.3593,-1.3593,-1.3593,-1.3461,-1.3481,-1.3492,-1.3513,-1.3521,-1.3534,-1.3552,-1.3555,-1.3573,-1.3594,-1.3588,-1.3615,-1.3625,-1.3648,-1.3655,-1.3675,-1.3664,-1.3675,-1.3678,-1.3681,-1.3686,-1.3606,-1.3678,-1.3678,-1.3678,-1.3678,-1.3678,0,-1.3535,-1.3541,-1.356,-1.3579,-1.3595,-1.3583,-1.3596,-1.3611,-1.3634,-1.3645,-1.3662,-1.3689,-1.3709,-1.3713,-1.3733,-1.3749,-1.3744,-1.3754,-1.3754,-1.3756,-1.3694,-1.3686,-1.3758,-1.3758,-1.3758,-1.3758,-1.3758,-1.3758,-1.3575,-1.3609,-1.3608,-1.3646,-1.3651,-1.3677,-1.3686,-1.3698,-1.3707,-1.3737,-1.3755,-1.3757,-1.3765,-1.3786,-1.3804,-1.3805,-1.3814,-1.3826,-1.3825,-1.3768,-1.376,-1.3752,-1.3745,-1.3828,-1.3828,-1.3885,-1.3886,-1.3886]}]]